Theta_e
318 317 317 315 310 308 305 305 305 312 310 303 299 300 299 297 299 301 299 299 297 296 295 296 295 295 297 301 299 297 299 298 297 296 300 300 301 300 299 297 297 299 299 301
318 317 317 314 310 307 305 303 304 314 307 299 298 298 298 299 299 297 298 297 298 299 296 295 297 297 301 301 303 298 299 297 294 295 299 301 299 300 300 298 299 300 298 301
318 318 317 314 311 309 306 306 301 304 303 300 299 298 297 297 300 298 299 297 299 298 297 298 296 297 299 300 303 304 301 297 294 292 295 298 297 298 299 299 297 298 300 304
318 318 317 315 311 309 306 305 301 299 299 300 299 300 299 297 296 299 300 298 297 297 295 296 295 297 299 300 301 300 299 295 297 297 297 297 296 297 298 298 299 297 301 304
318 318 317 315 311 308 307 304 302 301 300 298 299 297 298 296 295 297 296 297 296 298 296 297 295 296 297 296 299 298 298 295 297 295 296 298 296 298 299 306 309 309 310 308
318 318 318 314 310 306 306 306 305 304 298 300 298 299 298 297 299 299 300 298 297 296 297 299 299 299 298 298 296 296 296 296 295 292 296 297 293 300 307 309 310 309 306 315
318 318 318 314 310 306 305 307 305 302 298 300 299 298 299 297 298 297 298 299 298 299 301 300 300 299 299 298 296 297 295 295 296 292 295 286 303 312 312 311 312 313 314 317
318 318 318 314 311 307 305 307 305 303 299 301 298 299 298 299 300 298 299 299 300 304 300 295 292 293 293 296 297 296 296 295 292 290 290 293 298 305 306 305 307 315 314 317
318 318 319 314 312 309 306 303 307 306 300 298 300 298 300 297 297 298 298 303 305 303 299 295 289 288 290 290 293 298 294 296 293 291 287 285 298 307 311 310 302 312 316 319
317 318 319 314 313 309 305 304 309 308 303 303 300 298 298 299 298 298 299 302 303 303 298 294 292 290 294 290 290 291 293 292 289 290 289 293 304 308 312 299 303 311 314 319
316 317 317 314 314 312 306 305 309 309 304 302 303 303 300 299 301 298 300 300 300 299 294 294 293 293 295 294 294 293 292 291 289 290 288 286 306 308 303 304 310 312 312 318
315 316 315 314 314 314 308 305 310 310 305 303 307 305 305 306 306 302 300 300 300 299 295 292 295 294 295 293 290 296 291 295 295 292 294 304 305 302 303 304 308 310 312 315
314 316 314 312 313 313 310 307 308 307 304 303 303 302 305 310 308 310 303 302 303 300 300 297 296 292 296 291 292 294 297 300 295 296 301 303 302 302 302 302 308 311 315 318
314 314 313 313 313 311 309 307 308 306 303 298 300 307 306 308 309 308 307 305 302 301 302 298 297 294 297 295 296 295 298 299 294 295 301 302 303 304 301 302 308 311 314 319
314 313 313 313 311 309 308 306 306 307 305 299 300 304 305 306 307 305 306 305 302 301 298 298 296 297 296 296 296 293 299 297 292 293 297 296 302 301 302 303 307 309 312 316
312 313 312 311 310 309 308 305 308 309 308 303 297 301 304 304 306 305 304 304 302 301 300 297 296 297 298 293 292 296 300 301 302 298 299 301 301 302 304 307 307 310 313 316
311 311 310 309 308 310 305 302 307 308 310 304 296 298 303 305 306 306 306 307 304 304 299 299 298 297 297 295 291 296 300 301 301 302 301 299 301 303 305 306 308 312 315 316
310 309 308 308 308 308 308 309 309 309 307 305 295 295 299 305 303 302 305 304 305 304 300 299 298 295 297 290 296 297 299 300 300 301 302 301 302 303 306 307 309 310 312 313
309 309 308 309 308 307 307 311 310 309 307 300 299 296 294 303 301 303 303 304 300 303 301 300 298 292 292 297 297 298 299 297 298 299 299 301 300 302 305 305 308 308 309 312
308 308 305 302 307 310 310 307 304 304 303 303 300 299 297 301 301 300 302 302 299 296 300 299 296 296 299 298 299 299 298 298 297 296 297 300 301 303 304 305 307 310 312 311
308 305 303 309 308 307 304 299 298 298 297 300 300 301 298 301 298 299 302 299 299 293 297 297 294 295 298 298 299 299 299 300 300 301 302 303 302 302 304 305 307 311 312 311
307 307 308 308 304 301 297 295 297 296 295 299 299 300 302 300 305 301 300 298 298 292 300 295 292 298 298 298 298 299 300 301 301 301 301 301 302 303 303 306 308 310 310 310
310 307 302 300 299 291 291 287 292 293 298 300 301 299 303 302 304 302 301 296 295 301 295 292 297 297 298 299 299 300 303 302 301 301 302 302 302 305 305 306 307 308 308 305
305 300 289 295 292 294 295 296 298 300 302 301 300 302 301 303 301 303 296 299 299 291 290 292 298 297 298 300 301 301 300 301 300 300 300 300 301 302 303 304 305 303 302 304
301 301 292 295 300 302 302 303 303 303 304 303 302 300 302 299 298 300 297 292 290 291 290 298 298 299 298 299 301 301 301 301 302 302 300 300 301 301 301 303 303 303 303 302
302 298 296 298 298 297 299 300 299 305 302 305 303 297 295 295 296 293 292 290 287 294 298 298 298 298 299 300 301 302 303 303 302 301 303 302 301 300 301 302 303 303 303 303
298 296 300 299 298 297 299 300 301 305 300 295 295 291 288 293 292 291 296 293 296 300 298 298 300 299 300 301 302 302 303 303 303 304 304 302 302 302 301 300 302 304 305 305
Wind_Speed
12 12 12 10 13 21 6 3 2 2 2 1 2 2 2 3 3 5 4 4 6 4 5 5 4 4 3 10 3 2 3 2 2 3 2 3 1 4 2 7 8 1 5 5
11 11 10 7 9 10 3 3 3 1 2 1 2 1 4 5 2 6 3 4 4 4 3 3 2 2 3 10 4 3 1 1 4 4 5 4 3 3 3 2 2 7 8 6
11 10 9 5 6 7 0 0 0 1 3 2 1 4 2 6 5 5 6 4 2 3 3 6 4 3 3 6 7 8 2 3 3 5 4 4 2 0 3 3 4 3 5 2
10 10 8 2 4 4 2 2 2 2 1 2 0 1 2 6 4 4 4 4 5 2 3 2 3 2 1 4 9 4 4 2 3 1 2 3 5 7 6 5 2 5 4 6
10 9 8 2 1 2 1 1 1 2 0 3 2 1 3 6 4 1 3 5 3 3 3 1 3 1 3 4 6 3 4 2 1 2 2 4 7 9 8 3 2 5 6 5
10 9 7 5 4 3 1 1 1 2 2 2 3 3 3 7 9 6 4 12 6 6 5 4 5 5 5 3 3 4 3 1 1 3 4 6 8 4 4 2 2 1 4 4
10 9 8 8 7 5 1 2 1 2 2 3 3 5 3 10 3 9 5 4 4 4 9 9 6 8 7 6 6 3 3 3 0 3 4 9 5 5 5 3 3 1 5 3
10 9 9 10 10 9 1 2 2 3 3 2 3 9 9 11 10 8 6 3 4 7 4 3 4 3 3 4 6 4 2 2 3 5 8 4 6 0 1 1 3 5 8 4
11 10 10 12 10 10 2 2 2 2 1 4 1 7 12 11 6 4 4 3 4 2 3 2 3 3 2 4 5 4 5 2 5 4 7 7 4 4 2 2 5 7 8 7
13 12 12 13 11 11 3 2 4 2 2 1 3 3 7 5 5 4 4 4 3 2 2 2 2 3 0 3 2 3 2 3 10 9 7 3 6 8 2 7 4 10 10 8
14 13 15 15 14 12 5 1 5 2 1 1 3 3 5 4 4 6 6 5 2 2 3 2 3 2 3 2 2 2 3 3 4 6 9 13 10 2 4 5 7 8 9 5
14 14 18 15 11 11 6 1 2 2 2 2 2 3 3 3 4 6 3 2 4 3 5 1 3 3 3 4 2 4 4 4 2 5 3 5 6 5 7 8 7 6 7 11
14 13 17 15 11 10 7 2 3 2 1 2 2 4 5 7 5 1 4 2 5 4 3 4 2 3 3 5 5 4 4 4 4 4 3 4 2 3 7 11 11 8 8 3
14 17 15 11 9 9 7 2 2 1 2 2 4 2 5 7 4 3 3 9 8 7 1 3 2 2 4 2 1 4 3 7 4 7 9 4 6 4 10 13 12 8 9 3
15 16 11 10 8 7 4 2 1 1 2 3 4 3 5 6 6 14 12 13 9 3 3 2 2 3 4 1 2 5 7 6 5 4 2 1 5 7 11 11 12 11 9 5
16 13 10 8 8 8 2 2 1 1 1 2 4 2 3 5 10 14 11 7 5 3 2 3 2 2 2 3 3 3 8 7 6 3 3 6 9 10 10 9 9 11 10 6
15 12 9 8 7 1 1 2 2 1 2 2 5 4 2 2 2 3 3 5 4 3 3 2 3 3 3 2 4 4 9 8 7 6 5 8 8 3 5 7 9 9 7 3
12 10 8 5 7 7 2 3 2 1 3 2 4 3 4 4 2 4 1 3 2 2 3 3 3 3 2 5 7 2 4 6 7 7 8 12 8 7 5 4 5 8 7 2
10 9 8 2 2 1 2 3 2 3 2 3 2 7 5 5 2 2 3 1 2 1 2 3 5 3 6 4 5 6 4 2 5 7 7 8 8 8 1 2 4 1 5 7
8 2 2 2 1 3 1 0 1 2 3 2 1 1 4 7 3 3 4 1 3 3 2 5 4 4 2 5 5 4 2 1 1 5 4 8 8 5 3 2 3 5 2 2
1 1 2 1 3 2 2 2 1 1 1 1 1 3 5 4 6 4 2 3 3 3 4 4 3 3 4 8 6 5 5 3 2 1 1 1 2 1 1 1 4 5 2 3
1 3 3 2 1 2 2 2 1 2 1 3 2 3 2 4 3 3 4 3 3 3 7 3 3 3 9 10 7 6 6 4 6 6 4 3 1 3 3 4 4 2 3 3
1 1 2 1 1 2 3 4 1 1 3 3 3 4 3 3 4 3 4 6 4 7 4 4 3 10 11 10 9 9 7 8 7 8 7 6 2 2 1 2 3 4 5 5
1 2 3 1 2 1 1 0 1 1 0 1 2 2 4 2 5 3 5 3 5 5 5 5 6 15 15 12 11 12 12 12 11 9 8 9 8 7 6 5 5 7 8 8
2 2 3 3 3 1 2 1 2 3 1 2 2 2 2 3 3 2 4 5 5 6 5 3 7 16 15 14 13 12 11 9 8 8 9 7 9 9 10 9 9 10 8 8
2 5 2 3 1 2 2 2 2 1 2 3 3 2 3 4 3 6 7 6 7 4 2 3 12 16 15 14 12 10 9 8 6 4 7 9 10 8 9 9 9 10 10 10
3 2 0 2 2 2 2 2 1 2 1 2 2 4 3 4 3 3 3 3 4 3 3 6 13 16 14 12 9 8 6 6 5 5 5 8 7 7 7 8 7 8 8 8
Wind_Direction
313 320 326 347 349 337 37 323 128 41 284 243 344 128 114 355 33 35 65 78 63 53 39 54 87 102 16 352 293 50 38 310 211 73 341 248 47 61 323 244 192 240 306 212
307 315 323 356 3 22 325 16 297 75 267 240 122 156 108 57 81 43 53 87 50 58 76 100 70 78 34 9 37 42 16 82 200 159 152 139 87 77 80 35 296 202 225 199
303 311 319 351 4 1 12 278 185 358 67 24 193 149 125 120 66 80 65 84 109 118 92 43 116 97 48 358 24 41 197 87 323 292 37 358 178 14 48 345 246 142 224 188
295 299 305 323 358 8 278 7 89 40 150 96 278 288 131 131 119 76 47 95 59 102 114 107 91 59 55 66 9 44 12 98 312 308 311 314 293 295 308 305 302 268 19 307
293 292 294 226 82 116 252 289 183 144 102 298 230 304 154 141 121 62 85 114 109 121 140 82 137 110 33 35 10 54 5 104 326 274 329 295 277 280 281 238 216 272 303 279
286 278 275 207 163 169 217 106 63 250 100 167 195 189 159 142 139 54 110 135 123 105 98 90 65 66 80 58 9 43 31 93 306 255 334 300 246 267 267 190 124 292 277 16
284 274 262 195 185 187 210 150 149 192 178 243 203 178 136 140 112 130 131 112 100 99 112 110 102 64 75 91 58 356 126 112 227 275 290 245 88 57 53 216 110 58 268 302
282 274 261 192 194 177 205 153 190 190 183 233 193 164 125 108 97 101 110 65 65 136 100 131 137 122 154 70 47 21 255 157 186 244 229 306 211 107 13 325 201 332 302 258
277 263 247 200 193 174 184 205 145 268 168 198 111 140 151 134 121 113 95 95 124 116 81 106 162 168 100 161 143 67 109 99 239 177 237 234 79 89 21 205 232 12 325 290
275 264 222 193 187 179 195 196 176 215 221 131 181 147 152 123 110 113 144 158 137 13 92 95 154 144 20 199 187 151 143 177 223 215 240 247 14 327 222 202 62 331 324 298
272 262 200 183 193 177 177 122 183 248 189 109 206 180 138 133 157 154 140 158 156 120 102 149 151 182 157 198 141 169 218 219 208 217 233 237 3 224 268 2 321 335 325 340
268 267 188 178 181 177 169 142 165 184 241 49 321 15 6 319 170 131 148 31 133 128 104 159 138 156 174 176 214 191 224 264 301 254 18 36 24 38 353 329 310 315 322 316
255 230 175 168 189 168 185 164 153 166 194 126 173 105 22 47 31 346 131 169 133 135 20 133 120 172 171 188 215 184 213 199 241 297 172 220 61 34 3 342 318 339 319 249
272 175 158 170 174 175 175 181 156 131 99 139 105 350 46 349 351 66 41 118 97 107 117 96 130 156 220 193 51 238 195 165 209 258 254 304 213 1 357 334 320 354 339 256
153 141 151 144 158 164 141 115 75 285 292 110 103 130 40 35 88 90 104 120 116 123 119 111 126 120 161 100 233 229 186 193 197 227 135 209 286 326 340 326 319 344 324 270
125 125 119 149 176 156 220 127 108 20 265 133 137 37 33 65 90 89 83 75 71 69 104 104 113 88 206 167 230 220 188 192 203 217 156 254 282 298 303 307 316 319 301 255
110 117 150 171 172 168 16 60 68 220 244 105 114 117 75 110 59 64 79 54 79 69 103 111 126 131 207 220 237 158 190 199 214 249 276 267 212 205 323 304 319 317 338 352
127 147 144 142 132 114 94 20 16 205 93 57 123 100 170 193 134 128 26 118 137 66 114 151 131 149 209 244 235 205 186 200 241 252 250 258 272 286 284 296 328 2 344 142
132 137 134 129 26 87 86 341 60 52 28 129 154 157 168 163 106 94 126 348 150 107 171 159 180 139 223 225 184 184 179 246 297 289 265 260 242 261 274 271 287 320 347 2
131 182 172 103 52 311 255 151 69 57 21 43 157 122 138 187 166 123 135 154 146 192 144 130 224 239 205 158 134 109 103 103 145 279 241 220 242 224 216 261 324 308 302 11
171 93 73 77 306 202 37 83 68 45 182 176 110 224 142 186 180 137 201 156 162 212 152 221 203 252 160 152 141 114 117 131 138 269 3 344 102 192 245 296 311 308 332 101
54 93 108 157 70 65 114 78 110 222 223 176 204 165 210 151 190 139 171 171 182 221 144 203 236 149 147 150 133 113 128 126 84 58 49 10 316 244 257 276 286 335 40 72
203 108 93 79 43 86 168 173 198 235 188 188 186 179 178 153 220 114 169 178 184 126 188 229 209 136 150 144 139 127 113 100 74 71 58 67 70 22 20 107 62 68 76 76
13 77 46 2 136 218 186 2 18 23 196 182 187 190 208 176 191 157 166 118 148 200 222 223 155 159 152 149 140 130 118 100 91 77 61 52 56 88 71 73 83 83 73 75
40 345 58 57 6 10 51 28 9 37 322 332 210 192 226 180 150 182 119 186 209 202 220 163 140 152 151 150 148 141 138 127 107 91 77 67 60 64 67 68 76 77 85 69
44 33 33 337 228 68 13 340 329 6 322 264 243 148 181 249 214 178 192 196 200 200 156 118 144 149 155 152 153 152 143 144 135 115 94 88 86 74 63 54 63 65 58 66
43 12 8 306 258 296 309 311 275 307 307 343 3 173 194 311 219 226 216 167 110 106 95 140 155 151 152 150 154 160 159 163 169 159 127 122 112 100 88 80 50 58 62 38